When you browse on this site, cookies collect data to enhance your experience and personalize the content and advertising you see.
Visit our Privacy Policy to learn more. By continuing to use the site, you agree to this use of cookies and data.
  • In Hungary
  • List of Countries
  • For 7 days
  • Water Temperature
  • Satellite Maps
  • Weather Map
  • News
  • Weather Widgets
  • user-avatar
    Login

    Hourly Weather Przybrodzin

    Today, 16 November, Friday

    Time Temperature Precipitation Wind Pressure Humidity
    00:00 +4°C° 0 mm 2 mps 767 mmHg 86%
    01:00 +4°C° 0 mm 2 mps 767 mmHg 87%
    02:00 +2°C° 0 mm 3 mps 767 mmHg 88%
    03:00 +2°C° 0 mm 3 mps 767 mmHg 89%
    04:00 +2°C° 0 mm 3 mps 767 mmHg 91%
    05:00 +2°C° 0 mm 3 mps 767 mmHg 91%
    06:00 +1°C° 0 mm 3 mps 768 mmHg 91%
    07:00 +1°C° 0 mm 3 mps 768 mmHg 91%
    08:00 +2°C° 0 mm 3 mps 768 mmHg 85%
    09:00 +3°C° 0 mm 4 mps 768 mmHg 80%
    10:00 +4°C° 0 mm 4 mps 768 mmHg 74%
    11:00 +4°C° 0 mm 4 mps 768 mmHg 71%
    12:00 +4°C° 0 mm 4 mps 768 mmHg 67%
    13:00 +5°C° 0 mm 4 mps 769 mmHg 63%
    14:00 +4°C° 0 mm 4 mps 769 mmHg 66%
    15:00 +3°C° 0 mm 3 mps 769 mmHg 69%
    16:00 +3°C° 0 mm 3 mps 769 mmHg 71%
    17:00 +2°C° 0 mm 3 mps 769 mmHg 74%
    18:00 +2°C° 0 mm 3 mps 769 mmHg 76%
    19:00 0°C° 0 mm 4 mps 769 mmHg 78%
    20:00 +1°C° 0 mm 3 mps 770 mmHg 80%
    21:00 +1°C° 0 mm 3 mps 770 mmHg 82%
    22:00 +1°C° 0 mm 3 mps 770 mmHg 84%
    23:00 0°C° 0 mm 3 mps 770 mmHg 86%

    Tomorrow, 17 November, Saturday

    Time Temperature Precipitation Wind Pressure Humidity
    00:00 0°C° 0 mm 3 mps 770 mmHg 88%
    01:00 0°C° 0 mm 3 mps 770 mmHg 90%
    02:00 0°C° 0 mm 3 mps 770 mmHg 91%
    03:00 -1°C° 0 mm 3 mps 770 mmHg 92%
    04:00 -1°C° 0 mm 3 mps 770 mmHg 93%
    05:00 -1°C° 0 mm 3 mps 770 mmHg 92%
    06:00 -2°C° 0 mm 3 mps 770 mmHg 91%
    07:00 -2°C° 0 mm 3 mps 770 mmHg 90%
    08:00 -1°C° 0 mm 3 mps 770 mmHg 81%
    09:00 -1°C° 0 mm 4 mps 770 mmHg 72%
    10:00 0°C° 0 mm 4 mps 771 mmHg 63%
    11:00 +1°C° 0 mm 4 mps 770 mmHg 58%
    12:00 +3°C° 0 mm 4 mps 770 mmHg 52%
    13:00 +4°C° 0 mm 3 mps 770 mmHg 47%
    14:00 +3°C° 0 mm 3 mps 770 mmHg 50%
    15:00 +2°C° 0 mm 3 mps 769 mmHg 53%
    16:00 +1°C° 0 mm 3 mps 769 mmHg 56%
    17:00 +1°C° 0 mm 3 mps 769 mmHg 57%
    18:00 0°C° 0 mm 3 mps 769 mmHg 58%
    19:00 0°C° 0 mm 3 mps 769 mmHg 59%
    20:00 -1°C° 0 mm 2 mps 769 mmHg 59%
    21:00 -1°C° 0 mm 2 mps 769 mmHg 59%
    22:00 -1°C° 0 mm 2 mps 768 mmHg 59%
    23:00 -1°C° 0 mm 2 mps 768 mmHg 58%

    Day after tomorrow, 18 November, Sunday

    Time Temperature Precipitation Wind Pressure Humidity
    00:00 -1°C° 0 mm 2 mps 768 mmHg 57%
    01:00 0°C° 0 mm 1 mps 768 mmHg 56%
    02:00 0°C° 0 mm 1 mps 767 mmHg 55%
    03:00 0°C° 0 mm 1 mps 767 mmHg 54%
    04:00 0°C° 0 mm 1 mps 766 mmHg 54%
    05:00 0°C° 0 mm 1 mps 766 mmHg 54%
    06:00 0°C° 0 mm 1 mps 765 mmHg 53%
    07:00 0°C° 0 mm 1 mps 765 mmHg 53%
    08:00 -1°C° 0 mm 2 mps 765 mmHg 53%
    09:00 +2°C° 0 mm 2 mps 765 mmHg 52%
    10:00 +3°C° 0 mm 2 mps 764 mmHg 52%
    11:00 +3°C° 0 mm 2 mps 764 mmHg 57%
    12:00 +3°C° 0 mm 3 mps 763 mmHg 63%
    13:00 +4°C° 0 mm 3 mps 762 mmHg 69%
    14:00 +3°C° 0 mm 3 mps 762 mmHg 76%
    15:00 +3°C° 0 mm 3 mps 762 mmHg 84%
    16:00 +2°C° 0 mm 3 mps 761 mmHg 91%
    17:00 +3°C° 0 mm 3 mps 761 mmHg 90%
    18:00 +3°C° 0 mm 4 mps 761 mmHg 88%
    19:00 +2°C° 0 mm 5 mps 760 mmHg 87%
    20:00 +3°C° 0 mm 4 mps 760 mmHg 87%
    21:00 +1°C° 0 mm 4 mps 760 mmHg 86%
    22:00 +1°C° 0 mm 4 mps 760 mmHg 85%
    23:00 +1°C° 0.1 mm 4 mps 759 mmHg 86%

    19 November, Monday

    Time Temperature Precipitation Wind Pressure Humidity
    00:00 +1°C° 0.1 mm 4 mps 759 mmHg 87%
    01:00 +1°C° 0.1 mm 4 mps 759 mmHg 88%
    02:00 +1°C° 0.1 mm 4 mps 758 mmHg 88%
    03:00 +1°C° 0.1 mm 4 mps 758 mmHg 88%
    04:00 +1°C° 0.1 mm 4 mps 758 mmHg 88%
    05:00 +1°C° 0.1 mm 5 mps 757 mmHg 87%
    06:00 +1°C° 0.1 mm 5 mps 757 mmHg 85%
    07:00 +1°C° 0.1 mm 5 mps 757 mmHg 84%
    08:00 +1°C° 0.1 mm 6 mps 757 mmHg 80%
    09:00 +1°C° 0.1 mm 6 mps 757 mmHg 77%
    10:00 0°C° 0.1 mm 7 mps 757 mmHg 73%
    11:00 +1°C° 0 mm 6 mps 757 mmHg 72%
    12:00 +1°C° 0 mm 6 mps 757 mmHg 71%
    13:00 +2°C° 0 mm 6 mps 757 mmHg 70%
    14:00 +1°C° 0 mm 6 mps 757 mmHg 72%
    15:00 +1°C° 0 mm 5 mps 757 mmHg 73%
    16:00 +1°C° 0 mm 5 mps 757 mmHg 74%
    17:00 +1°C° 0 mm 5 mps 757 mmHg 75%
    18:00 +1°C° 0 mm 5 mps 757 mmHg 77%
    19:00 +1°C° 0 mm 5 mps 757 mmHg 78%
    20:00 +1°C° 0 mm 4 mps 757 mmHg 80%
    21:00 0°C° 0 mm 4 mps 757 mmHg 82%
    22:00 0°C° 0 mm 4 mps 757 mmHg 85%
    23:00 0°C° 0 mm 4 mps 757 mmHg 86%

    20 November, Tuesday

    Time Temperature Precipitation Wind Pressure Humidity
    00:00 0°C° 0 mm 4 mps 757 mmHg 88%
    01:00 0°C° 0 mm 4 mps 757 mmHg 90%
    02:00 0°C° 0.1 mm 4 mps 756 mmHg 89%
    03:00 0°C° 0.1 mm 4 mps 756 mmHg 89%
    04:00 0°C° 0.1 mm 4 mps 756 mmHg 89%
    05:00 0°C° 0 mm 4 mps 756 mmHg 88%
    06:00 0°C° 0 mm 4 mps 755 mmHg 87%
    07:00 0°C° 0 mm 4 mps 755 mmHg 86%
    08:00 0°C° 0 mm 4 mps 755 mmHg 83%
    09:00 0°C° 0 mm 5 mps 755 mmHg 79%
    10:00 0°C° 0 mm 5 mps 755 mmHg 76%
    11:00 +1°C° 0 mm 5 mps 755 mmHg 72%
    12:00 +1°C° 0 mm 5 mps 754 mmHg 69%
    13:00 +1°C° 0 mm 5 mps 754 mmHg 66%
    14:00 +1°C° 0 mm 5 mps 754 mmHg 68%
    15:00 0°C° 0 mm 5 mps 753 mmHg 70%
    16:00 0°C° 0 mm 4 mps 753 mmHg 72%
    17:00 0°C° 0 mm 5 mps 753 mmHg 73%
    18:00 -1°C° 0 mm 5 mps 753 mmHg 74%
    19:00 -1°C° 0 mm 5 mps 753 mmHg 75%
    20:00 -1°C° 0 mm 5 mps 753 mmHg 76%
    21:00 -2°C° 0 mm 5 mps 753 mmHg 77%
    22:00 -2°C° 0 mm 5 mps 752 mmHg 79%
    23:00 -2°C° 0 mm 5 mps 752 mmHg 80%

    21 November, Wednesday

    Time Temperature Precipitation Wind Pressure Humidity
    00:00 -2°C° 0 mm 5 mps 752 mmHg 81%
    01:00 -4°C° 0 mm 5 mps 752 mmHg 82%
    02:00 -4°C° 0 mm 5 mps 751 mmHg 82%
    03:00 -2°C° 0 mm 5 mps 751 mmHg 82%
    04:00 -3°C° 0 mm 6 mps 751 mmHg 81%
    05:00 -3°C° 0.1 mm 6 mps 751 mmHg 82%
    06:00 -3°C° 0.1 mm 6 mps 751 mmHg 82%
    07:00 -3°C° 0.1 mm 6 mps 751 mmHg 82%
    08:00 -3°C° 0.1 mm 7 mps 751 mmHg 82%
    09:00 -2°C° 0.1 mm 7 mps 751 mmHg 82%
    10:00 -2°C° 0.1 mm 7 mps 751 mmHg 82%
    11:00 -2°C° 0.2 mm 7 mps 751 mmHg 82%
    12:00 -2°C° 0.2 mm 7 mps 751 mmHg 82%
    13:00 -1°C° 0.2 mm 7 mps 751 mmHg 82%
    14:00 -1°C° 0.3 mm 7 mps 751 mmHg 83%
    15:00 -1°C° 0.3 mm 7 mps 751 mmHg 84%
    16:00 -2°C° 0.3 mm 7 mps 751 mmHg 85%
    17:00 -2°C° 0.2 mm 7 mps 751 mmHg 85%
    18:00 -1°C° 0.2 mm 7 mps 751 mmHg 86%
    19:00 -1°C° 0.2 mm 7 mps 751 mmHg 86%
    20:00 -1°C° 0.1 mm 7 mps 752 mmHg 86%
    21:00 -1°C° 0.1 mm 7 mps 752 mmHg 86%
    22:00 -1°C° 0.1 mm 7 mps 752 mmHg 86%
    23:00 -1°C° 0 mm 7 mps 752 mmHg 86%
    Show more